Piedmont Triad International

Airport
ICAO code: 
KGSO
Summary
ICAO Region: 
NAM
Territory: 
Location: 
Friendship Township, Guilford County, Greensboro, North Carolina,
Elevation: 
925 ft
Coordinates: 
Aerial View: 
36° 5' 52.084" N, 79° 56' 14.286" W
Metar
Observation
KGSO 262254Z 04006KT 10SM FEW250 03/M13 A3029 RMK AO2 SLP262 T00281133
Station
Greensboro, Piedmont Triad International Airport
Date/Time
2022-01-26 22:54:00
Wind direction
40°
Wind speed
06 kts
Lowest cloud amount
few clouds
Temperature
2.8°C
Dew point
-13.3°C
Humidity
29%
Weather condition
n/a

Description

Piedmont Triad International Airport (commonly referred to as "PTIA" or just "PTI") is an airport just west of Greensboro, serving Greensboro, High Point and Winston-Salem in North Carolina.

Climatology

Humid “subtropical” climate (Köppen climate classification Cfa) - characterized by hot, humid summers and cool winters. Significant amounts of precipitation occur in all seasons in most areas. Winter rainfall (and sometimes snowfall) is associated with large storms that the westerlies steer from west to east. Most summer rainfall occurs during thunderstorms and occasional tropical storms (hurricanes). Tornadoes are a threat in the Spring.

Runways

Designator Length Width Surface Rops
14/32 1945 46 ASP Yes/Yes
05L/23L 2743 46 ASPH Yes/Yes
05R/23L 3048 46 ASPH-G Yes/Yes
Airport map: 
Aerial View: 

SKYbrary Partners:

Safety knowledge contributed by: